| time (UTC) | temp C | wind direction | speed KPH | gust KPH | rain 1hr cm | rain 24hr cm | rain mn cm | humidity % | barometer mb |
| 20260508014501 | 9 | 150 | 0.0 | 0.0 | 0.00 | 0.00 | 0.00 | 48 | 1008.8 |
| 20260508014226 | 9 | 150 | 0.0 | 0.0 | 0.00 | 0.00 | 0.00 | 48 | 1008.8 |
| 20260508013449 | 10 | 151 | 0.0 | 0.0 | 0.00 | 0.00 | 0.00 | 46 | 1008.8 |
| 20260508012943 | 10 | 151 | 0.0 | 0.0 | 0.00 | 0.00 | 0.00 | 44 | 1008.8 |
| 20260508012437 | 10 | 151 | 0.0 | 0.0 | 0.00 | 0.00 | 0.00 | 44 | 1008.8 |
| 20260508011930 | 11 | 151 | 0.0 | 0.0 | 0.00 | 0.00 | 0.00 | 43 | 1008.7 |
| 20260508011425 | 11 | 153 | 0.0 | 0.0 | 0.00 | 0.00 | 0.00 | 46 | 1008.7 |
| 20260508010918 | 11 | 153 | 0.0 | 1.6 | 0.00 | 0.00 | 0.00 | 43 | 1008.6 |
| 20260508010413 | 12 | 153 | 0.0 | 1.6 | 0.00 | 0.00 | 0.00 | 43 | 1008.6 |
| 20260508005907 | 12 | 186 | 0.0 | 3.2 | 0.00 | 0.00 | 0.00 | 40 | 1008.6 |
| 20260508005401 | 12 | 176 | 1.6 | 4.8 | 0.00 | 0.00 | 0.00 | 38 | 1008.7 |
| 20260508004854 | 12 | 183 | 1.6 | 8.0 | 0.00 | 0.00 | 0.00 | 38 | 1008.6 |
| 20260508004619 | 12 | 211 | 3.2 | 8.0 | 0.00 | 0.00 | 0.00 | 38 | 1008.6 |
| 20260508003843 | 13 | 194 | 3.2 | 9.7 | 0.00 | 0.00 | 0.00 | 37 | 1008.6 |
| 20260508003336 | 13 | 197 | 4.8 | 9.7 | 0.00 | 0.00 | 0.00 | 35 | 1008.6 |
| 20260508003101 | 13 | 132 | 3.2 | 9.7 | 0.00 | 0.00 | 0.00 | 35 | 1008.7 |
| 20260508002324 | 13 | 203 | 1.6 | 8.0 | 0.00 | 0.00 | 0.00 | 36 | 1008.7 |
| 20260508001818 | 14 | 146 | 1.6 | 6.4 | 0.00 | 0.00 | 0.00 | 35 | 1008.7 |
| 20260508001313 | 14 | 203 | 3.2 | 9.7 | 0.00 | 0.00 | 0.00 | 36 | 1008.7 |
| 20260508000806 | 14 | 174 | 3.2 | 9.7 | 0.00 | 0.00 | 0.00 | 33 | 1008.7 |
| 20260508000301 | 14 | 158 | 3.2 | 8.0 | 0.00 | 0.00 | 0.00 | 33 | 1008.7 |
| 20260508000025 | 14 | 172 | 1.6 | 8.0 | 0.00 | 0.00 | 0.00 | 34 | 1008.8 |
| 20260507235520 | 14 | 168 | 1.6 | 6.4 | 0.00 | 0.00 | 0.00 | 34 | 1008.8 |
| 20260507234743 | 15 | 101 | 1.6 | 8.0 | 0.00 | 0.00 | 0.00 | 32 | 1008.8 |
| 20260507234242 | 14 | 173 | 6.4 | 11.3 | 0.00 | 0.00 | 0.00 | 32 | 1008.9 |
| 20260507234237 | 15 | 146 | 3.2 | 8.0 | 0.00 | 0.00 | 0.00 | 33 | 1008.8 |
| 20260507233232 | 14 | 123 | 4.8 | 11.3 | 0.00 | 0.00 | 0.00 | 31 | 1008.9 |
| 20260507232733 | 15 | 149 | 6.4 | 12.9 | 0.00 | 0.00 | 0.00 | 33 | 1008.9 |
| 20260507232232 | 15 | 194 | 4.8 | 12.9 | 0.00 | 0.00 | 0.00 | 33 | 1009.0 |
| 20260507231730 | 15 | 191 | 1.6 | 11.3 | 0.00 | 0.00 | 0.00 | 33 | 1009.0 |
| 20260507231232 | 14 | 163 | 3.2 | 11.3 | 0.00 | 0.00 | 0.00 | 32 | 1009.0 |
| 20260507230730 | 15 | 207 | 4.8 | 11.3 | 0.00 | 0.00 | 0.00 | 31 | 1009.1 |
| 20260507230230 | 15 | 145 | 3.2 | 11.3 | 0.00 | 0.00 | 0.00 | 33 | 1009.2 |
| 20260507225729 | 15 | 133 | 1.6 | 8.0 | 0.00 | 0.00 | 0.00 | 32 | 1009.1 |
| 20260507225228 | 16 | 105 | 0.0 | 6.4 | 0.00 | 0.00 | 0.00 | 29 | 1009.2 |
| 20260507224955 | 15 | 322 | 0.0 | 4.8 | 0.00 | 0.00 | 0.00 | 31 | 1009.3 |
| 20260507224223 | 15 | 43 | 0.0 | 4.8 | 0.00 | 0.00 | 0.00 | 31 | 1009.5 |
| 20260507223720 | 15 | 106 | 3.2 | 11.3 | 0.00 | 0.00 | 0.00 | 33 | 1009.2 |
| 20260507223222 | 15 | 174 | 6.4 | 12.9 | 0.00 | 0.00 | 0.00 | 30 | 1009.2 |
| 20260507222720 | 16 | 173 | 4.8 | 12.9 | 0.00 | 0.00 | 0.00 | 31 | 1009.2 |
| 20260507222221 | 16 | 167 | 3.2 | 11.3 | 0.00 | 0.00 | 0.00 | 31 | 1009.3 |
| 20260507221721 | 16 | 112 | 1.6 | 8.0 | 0.00 | 0.00 | 0.00 | 29 | 1009.3 |
| 20260507221222 | 16 | 165 | 1.6 | 8.0 | 0.00 | 0.00 | 0.00 | 29 | 1009.5 |
| 20260507220715 | 16 | 252 | 1.6 | 8.0 | 0.00 | 0.00 | 0.00 | 28 | 1009.5 |
| 20260507220209 | 15 | 356 | 1.6 | 8.0 | 0.00 | 0.00 | 0.00 | 29 | 1009.6 |
| 20260507215704 | 16 | 170 | 1.6 | 6.4 | 0.00 | 0.00 | 0.00 | 30 | 1009.6 |
| 20260507215204 | 15 | 47 | 3.2 | 9.7 | 0.00 | 0.00 | 0.00 | 32 | 1009.6 |
| 20260507214701 | 15 | 188 | 3.2 | 17.7 | 0.00 | 0.00 | 0.00 | 29 | 1009.7 |
| 20260507214429 | 16 | 226 | 4.8 | 17.7 | 0.00 | 0.00 | 0.00 | 31 | 1009.7 |
| 20260507213704 | 16 | 225 | 3.2 | 12.9 | 0.00 | 0.00 | 0.00 | 29 | 1009.7 |
| 20260507213658 | 16 | 204 | 4.8 | 16.1 | 0.00 | 0.00 | 0.00 | 29 | 1009.8 |
| 20260507212704 | 16 | 188 | 3.2 | 12.9 | 0.00 | 0.00 | 0.00 | 29 | 1009.7 |
| 20260507212659 | 16 | 174 | 4.8 | 12.9 | 0.00 | 0.00 | 0.00 | 29 | 1009.8 |
| 20260507211700 | 16 | 131 | 1.6 | 8.0 | 0.00 | 0.00 | 0.00 | 31 | 1009.8 |
| 20260507211159 | 16 | 148 | 3.2 | 9.7 | 0.00 | 0.00 | 0.00 | 30 | 1009.7 |
| 20260507210659 | 15 | 32 | 6.4 | 14.5 | 0.00 | 0.00 | 0.00 | 31 | 1009.7 |
| 20260507210159 | 16 | 162 | 6.4 | 14.5 | 0.00 | 0.00 | 0.00 | 28 | 1009.9 |
| 20260507205700 | 16 | 198 | 4.8 | 12.9 | 0.00 | 0.00 | 0.00 | 31 | 1009.9 |
| 20260507205200 | 16 | 142 | 4.8 | 12.9 | 0.00 | 0.00 | 0.00 | 30 | 1009.8 |
| 20260507204658 | 16 | 222 | 8.0 | 16.1 | 0.00 | 0.00 | 0.00 | 31 | 1010.0 |
| 20260507204432 | 16 | 186 | 6.4 | 16.1 | 0.00 | 0.00 | 0.00 | 30 | 1010.1 |
| 20260507204326 | 15 | 186 | 4.8 | 12.9 | 0.00 | 0.00 | 0.00 | 32 | 1010.2 |
| 20260507203153 | 15 | 207 | 6.4 | 19.3 | 0.00 | 0.00 | 0.00 | 30 | 1010.1 |
| 20260507202648 | 15 | 212 | 3.2 | 19.3 | 0.00 | 0.00 | 0.00 | 30 | 1010.1 |
| 20260507202141 | 15 | 135 | 3.2 | 12.9 | 0.00 | 0.00 | 0.00 | 27 | 1010.2 |
| 20260507201642 | 15 | 207 | 3.2 | 12.9 | 0.00 | 0.00 | 0.00 | 26 | 1010.3 |
| 20260507201138 | 15 | 218 | 3.2 | 11.3 | 0.00 | 0.00 | 0.00 | 28 | 1010.5 |
| 20260507200639 | 16 | 326 | 4.8 | 16.1 | 0.00 | 0.00 | 0.00 | 30 | 1010.5 |
| 20260507200137 | 15 | 153 | 3.2 | 16.1 | 0.00 | 0.00 | 0.00 | 31 | 1010.4 |
| 20260507195637 | 15 | 62 | 1.6 | 6.4 | 0.00 | 0.00 | 0.00 | 28 | 1010.6 |
| 20260507195138 | 15 | 200 | 1.6 | 9.7 | 0.00 | 0.00 | 0.00 | 29 | 1010.6 |
| 20260507194635 | 15 | 274 | 3.2 | 9.7 | 0.00 | 0.00 | 0.00 | 30 | 1010.7 |
| 20260507194135 | 15 | 235 | 4.8 | 12.9 | 0.00 | 0.00 | 0.00 | 30 | 1010.7 |
| 20260507193636 | 15 | 175 | 4.8 | 14.5 | 0.00 | 0.00 | 0.00 | 36 | 1010.8 |
| 20260507193134 | 15 | 335 | 3.2 | 14.5 | 0.00 | 0.00 | 0.00 | 32 | 1010.7 |
| 20260507192634 | 15 | 187 | 1.6 | 11.3 | 0.00 | 0.00 | 0.00 | 33 | 1010.7 |
| 20260507192134 | 15 | 309 | 1.6 | 9.7 | 0.00 | 0.00 | 0.00 | 31 | 1010.8 |
| 20260507191634 | 14 | 207 | 3.2 | 11.3 | 0.00 | 0.00 | 0.00 | 32 | 1010.8 |
| 20260507191134 | 13 | 226 | 4.8 | 14.5 | 0.00 | 0.00 | 0.00 | 34 | 1010.9 |
| 20260507190636 | 13 | 146 | 3.2 | 14.5 | 0.00 | 0.00 | 0.00 | 31 | 1010.8 |
| 20260507190134 | 13 | 1 | 1.6 | 12.9 | 0.00 | 0.00 | 0.00 | 32 | 1010.8 |
| 20260507185633 | 13 | 233 | 1.6 | 6.4 | 0.00 | 0.00 | 0.00 | 28 | 1010.9 |
| 20260507185134 | 14 | 184 | 4.8 | 12.9 | 0.00 | 0.00 | 0.00 | 32 | 1011.0 |
| 20260507184905 | 14 | 218 | 6.4 | 14.5 | 0.00 | 0.00 | 0.00 | 33 | 1010.9 |
| 20260507184137 | 15 | 218 | 3.2 | 11.3 | 0.00 | 0.00 | 0.00 | 35 | 1011.0 |
| 20260507184133 | 15 | 228 | 6.4 | 14.5 | 0.00 | 0.00 | 0.00 | 33 | 1011.0 |
| 20260507183134 | 14 | 233 | 1.6 | 9.7 | 0.00 | 0.00 | 0.00 | 34 | 1011.0 |
| 20260507182634 | 14 | 236 | 3.2 | 14.5 | 0.00 | 0.00 | 0.00 | 31 | 1011.2 |
| 20260507182132 | 13 | 221 | 3.2 | 14.5 | 0.00 | 0.00 | 0.00 | 35 | 1011.2 |
| 20260507181634 | 13 | 236 | 1.6 | 8.0 | 0.00 | 0.00 | 0.00 | 32 | 1011.2 |
| 20260507181133 | 13 | 239 | 3.2 | 9.7 | 0.00 | 0.00 | 0.00 | 30 | 1011.2 |
| 20260507180634 | 13 | 228 | 1.6 | 9.7 | 0.00 | 0.00 | 0.00 | 33 | 1011.3 |
| 20260507180133 | 13 | 201 | 0.0 | 9.7 | 0.00 | 0.00 | 0.00 | 38 | 1011.3 |
| 20260507175904 | 12 | 164 | 0.0 | 4.8 | 0.00 | 0.00 | 0.00 | 31 | 1011.4 |
| 20260507175132 | 12 | 141 | 0.0 | 4.8 | 0.00 | 0.00 | 0.00 | 34 | 1011.6 |
| 20260507174632 | 13 | 22 | 1.6 | 8.0 | 0.00 | 0.00 | 0.00 | 32 | 1011.6 |
| 20260507174403 | 13 | 19 | 4.8 | 14.5 | 0.00 | 0.00 | 0.00 | 32 | 1011.6 |
| 20260507173632 | 13 | 242 | 3.2 | 16.1 | 0.00 | 0.00 | 0.00 | 33 | 1011.6 |
| 20260507173133 | 13 | 189 | 1.6 | 16.1 | 0.00 | 0.00 | 0.00 | 35 | 1011.7 |
| 20260507172632 | 12 | 329 | 0.0 | 4.8 | 0.00 | 0.00 | 0.00 | 35 | 1011.8 |
| 20260507172134 | 12 | 197 | 0.0 | 3.2 | 0.00 | 0.00 | 0.00 | 35 | 1011.8 |
| 20260507171632 | 12 | 229 | 0.0 | 8.0 | 0.00 | 0.00 | 0.00 | 35 | 1011.8 |
| 20260507171134 | 12 | 314 | 1.6 | 8.0 | 0.00 | 0.00 | 0.00 | 34 | 1011.8 |
| 20260507170629 | 12 | 359 | 1.6 | 11.3 | 0.00 | 0.00 | 0.00 | 33 | 1012.0 |
| 20260507170129 | 12 | 211 | 1.6 | 11.3 | 0.00 | 0.00 | 0.00 | 39 | 1012.0 |
| 20260507165628 | 11 | 248 | 1.6 | 4.8 | 0.00 | 0.00 | 0.00 | 38 | 1012.1 |
| 20260507165129 | 11 | 144 | 0.0 | 6.4 | 0.00 | 0.00 | 0.00 | 33 | 1012.1 |
| 20260507164629 | 12 | 356 | 0.0 | 6.4 | 0.00 | 0.00 | 0.00 | 33 | 1012.1 |
| 20260507164128 | 12 | 155 | 0.0 | 6.4 | 0.00 | 0.00 | 0.00 | 36 | 1012.1 |
| 20260507163628 | 11 | 242 | 1.6 | 8.0 | 0.00 | 0.00 | 0.00 | 38 | 1012.2 |
| 20260507163129 | 11 | 111 | 1.6 | 8.0 | 0.00 | 0.00 | 0.00 | 41 | 1012.3 |
| 20260507162630 | 11 | 110 | 3.2 | 8.0 | 0.00 | 0.00 | 0.00 | 37 | 1012.3 |
| 20260507162130 | 11 | 302 | 3.2 | 12.9 | 0.00 | 0.00 | 0.00 | 39 | 1012.3 |
| 20260507161629 | 11 | 158 | 1.6 | 12.9 | 0.00 | 0.00 | 0.00 | 38 | 1012.4 |
| 20260507161129 | 11 | 186 | 1.6 | 8.0 | 0.00 | 0.00 | 0.00 | 41 | 1012.5 |
| 20260507160901 | 11 | 143 | 1.6 | 8.0 | 0.00 | 0.00 | 0.00 | 41 | 1012.5 |
| 20260507160128 | 11 | 168 | 1.6 | 8.0 | 0.00 | 0.00 | 0.00 | 45 | 1012.4 |
| 20260507155629 | 10 | 155 | 1.6 | 9.7 | 0.00 | 0.00 | 0.00 | 43 | 1012.5 |
| 20260507155128 | 10 | 144 | 3.2 | 9.7 | 0.00 | 0.00 | 0.00 | 42 | 1012.6 |
| 20260507154630 | 11 | 207 | 1.6 | 9.7 | 0.00 | 0.00 | 0.00 | 44 | 1012.5 |
| 20260507154129 | 10 | 255 | 1.6 | 4.8 | 0.00 | 0.00 | 0.00 | 44 | 1012.5 |
| 20260507153628 | 10 | 139 | 1.6 | 8.0 | 0.00 | 0.00 | 0.00 | 44 | 1012.5 |
| 20260507153129 | 10 | 190 | 3.2 | 8.0 | 0.00 | 0.00 | 0.00 | 44 | 1012.5 |
| 20260507152634 | 10 | 217 | 1.6 | 6.4 | 0.00 | 0.00 | 0.00 | 47 | 1012.5 |
| 20260507152628 | 10 | 233 | 1.6 | 8.0 | 0.00 | 0.00 | 0.00 | 43 | 1012.5 |
| 20260507151630 | 10 | 134 | 0.0 | 6.4 | 0.00 | 0.00 | 0.00 | 44 | 1012.5 |
| 20260507151135 | 9 | 314 | 1.6 | 6.4 | 0.00 | 0.00 | 0.00 | 46 | 1012.6 |
| 20260507151129 | 10 | 242 | 1.6 | 6.4 | 0.00 | 0.00 | 0.00 | 46 | 1012.6 |
| 20260507150124 | 9 | 153 | 1.6 | 4.8 | 0.00 | 0.00 | 0.00 | 46 | 1012.6 |
| 20260507145624 | 9 | 180 | 1.6 | 6.4 | 0.00 | 0.00 | 0.00 | 46 | 1012.7 |
| 20260507145355 | 8 | 266 | 1.6 | 6.4 | 0.00 | 0.00 | 0.00 | 51 | 1012.7 |
| 20260507144625 | 8 | 146 | 1.6 | 8.0 | 0.00 | 0.00 | 0.00 | 48 | 1012.7 |
| 20260507144125 | 8 | 139 | 0.0 | 8.0 | 0.00 | 0.00 | 0.00 | 50 | 1012.7 |
| 20260507143618 | 8 | 226 | 0.0 | 6.4 | 0.00 | 0.00 | 0.00 | 48 | 1012.8 |
| 20260507143111 | 8 | 222 | 0.0 | 6.4 | 0.00 | 0.00 | 0.00 | 51 | 1012.8 |
| 20260507142605 | 7 | 233 | 0.0 | 4.8 | 0.00 | 0.00 | 0.00 | 55 | 1012.8 |
| 20260507142100 | 7 | 207 | 0.0 | 4.8 | 0.00 | 0.00 | 0.00 | 54 | 1012.8 |
| 20260507141600 | 7 | 155 | 0.0 | 4.8 | 0.00 | 0.00 | 0.00 | 56 | 1012.8 |
| 20260507141333 | 6 | 210 | 0.0 | 1.6 | 0.00 | 0.00 | 0.00 | 58 | 1012.8 |
| 20260507140557 | 6 | 153 | 0.0 | 1.6 | 0.00 | 0.00 | 0.00 | 59 | 1012.9 |
| 20260507140057 | 6 | 111 | 0.0 | 4.8 | 0.00 | 0.00 | 0.00 | 61 | 1012.8 |
| 20260507135558 | 5 | 226 | 1.6 | 4.8 | 0.00 | 0.00 | 0.00 | 63 | 1012.8 |
| 20260507135056 | 5 | 150 | 0.0 | 4.8 | 0.00 | 0.00 | 0.00 | 65 | 1012.9 |
| 20260507134554 | 5 | 245 | 0.0 | 3.2 | 0.00 | 0.00 | 0.00 | 69 | 1012.9 |
| 20260507134051 | 5 | 169 | 0.0 | 3.2 | 0.00 | 0.00 | 0.00 | 71 | 1012.9 |
| 20260507133550 | 4 | 132 | 0.0 | 1.6 | 0.00 | 0.00 | 0.00 | 75 | 1013.0 |
| 20260507133321 | 3 | 143 | 0.0 | 1.6 | 0.00 | 0.00 | 0.00 | 76 | 1013.0 |
| 20260507132547 | 3 | 181 | 0.0 | 0.0 | 0.00 | 0.00 | 0.00 | 81 | 1013.0 |
| 20260507132047 | 3 | 160 | 0.0 | 1.6 | 0.00 | 0.00 | 0.00 | 82 | 1013.0 |
| 20260507131816 | 2 | 191 | 0.0 | 1.6 | 0.00 | 0.00 | 0.00 | 84 | 1013.0 |
| 20260507131314 | 1 | 158 | 0.0 | 0.0 | 0.00 | 0.00 | 0.00 | 87 | 1013.0 |
| 20260507130543 | 1 | 148 | 0.0 | 0.0 | 0.00 | 0.00 | 0.00 | 88 | 1013.1 |
| 20260507130045 | 0 | 153 | 0.0 | 0.0 | 0.00 | 0.00 | 0.00 | 89 | 1013.1 |
| 20260507125543 | 0 | 153 | 0.0 | 0.0 | 0.00 | 0.00 | 0.00 | 90 | 1013.1 |
| 20260507125040 | 0 | 154 | 0.0 | 0.0 | 0.00 | 0.00 | 0.00 | 92 | 1013.2 |
| 20260507124540 | 0 | 153 | 0.0 | 0.0 | 0.00 | 0.00 | 0.00 | 92 | 1013.2 |
| 20260507124041 | 0 | 153 | 0.0 | 0.0 | 0.00 | 0.00 | 0.00 | 92 | 1013.2 |
| 20260507123540 | -1 | 154 | 0.0 | 0.0 | 0.00 | 0.00 | 0.00 | 92 | 1013.2 |
| 20260507123312 | -1 | 154 | 0.0 | 0.0 | 0.00 | 0.00 | 0.00 | 92 | 1013.1 |
| 20260507122542 | -1 | 153 | 0.0 | 0.0 | 0.00 | 0.00 | 0.00 | 92 | 1013.2 |
| 20260507122038 | -1 | 154 | 0.0 | 0.0 | 0.00 | 0.00 | 0.00 | 93 | 1013.2 |
| 20260507121538 | -1 | 154 | 0.0 | 0.0 | 0.00 | 0.00 | 0.00 | 92 | 1013.2 |
| 20260507121306 | -1 | 154 | 0.0 | 0.0 | 0.00 | 0.00 | 0.00 | 92 | 1013.2 |
| 20260507120805 | -2 | 153 | 0.0 | 0.0 | 0.00 | 0.00 | 0.00 | 92 | 1013.1 |
| 20260507120037 | -2 | 154 | 0.0 | 0.0 | 0.00 | 0.00 | 0.00 | 91 | 1013.1 |
| 20260507115536 | -2 | 154 | 0.0 | 0.0 | 0.00 | 0.00 | 0.00 | 91 | 1013.2 |
| 20260507115032 | -2 | 154 | 0.0 | 0.0 | 0.00 | 0.00 | 0.00 | 91 | 1013.2 |
| 20260507114531 | -1 | 153 | 0.0 | 0.0 | 0.00 | 0.00 | 0.00 | 91 | 1013.2 |
| 20260507114030 | -1 | 153 | 0.0 | 0.0 | 0.00 | 0.00 | 0.00 | 91 | 1013.2 |
| 20260507113531 | -2 | 153 | 0.0 | 0.0 | 0.00 | 0.00 | 0.00 | 91 | 1013.1 |
| 20260507113024 | -2 | 153 | 0.0 | 0.0 | 0.00 | 0.00 | 0.00 | 91 | 1013.1 |
| 20260507112518 | -2 | 154 | 0.0 | 0.0 | 0.00 | 0.00 | 0.00 | 90 | 1013.1 |
| 20260507112013 | -2 | 153 | 0.0 | 0.0 | 0.00 | 0.00 | 0.00 | 90 | 1013.1 |
| 20260507111507 | -1 | 154 | 0.0 | 0.0 | 0.00 | 0.00 | 0.00 | 90 | 1013.1 |
| 20260507111232 | -1 | 154 | 0.0 | 0.0 | 0.00 | 0.00 | 0.00 | 90 | 1013.2 |
| 20260507110454 | -1 | 153 | 0.0 | 0.0 | 0.00 | 0.00 | 0.00 | 89 | 1013.2 |
| 20260507105951 | -1 | 153 | 0.0 | 0.0 | 0.00 | 0.00 | 0.00 | 89 | 1013.2 |
| 20260507105946 | -1 | 153 | 0.0 | 0.0 | 0.00 | 0.00 | 0.00 | 88 | 1013.4 |
| 20260507104937 | -1 | 153 | 0.0 | 0.0 | 0.00 | 0.00 | 0.00 | 87 | 1013.2 |
| 20260507104431 | -1 | 153 | 0.0 | 0.0 | 0.00 | 0.00 | 0.00 | 88 | 1013.2 |
| 20260507104426 | -1 | 153 | 0.0 | 0.0 | 0.00 | 0.00 | 0.00 | 88 | 1013.2 |
| 20260507103419 | 0 | 153 | 0.0 | 0.0 | 0.00 | 0.00 | 0.00 | 88 | 1013.1 |
| 20260507103144 | 0 | 154 | 0.0 | 0.0 | 0.00 | 0.00 | 0.00 | 88 | 1013.1 |
| 20260507102407 | 0 | 147 | 0.0 | 0.0 | 0.00 | 0.00 | 0.00 | 88 | 1013.2 |
| 20260507101902 | 0 | 146 | 0.0 | 0.0 | 0.00 | 0.00 | 0.00 | 87 | 1013.2 |
| 20260507101355 | 0 | 146 | 0.0 | 0.0 | 0.00 | 0.00 | 0.00 | 87 | 1013.0 |
| 20260507101120 | 0 | 147 | 0.0 | 0.0 | 0.00 | 0.00 | 0.00 | 87 | 1013.1 |
| 20260507100350 | 0 | 146 | 0.0 | 0.0 | 0.00 | 0.00 | 0.00 | 88 | 1013.1 |
| 20260507095846 | 0 | 146 | 0.0 | 0.0 | 0.00 | 0.00 | 0.00 | 88 | 1013.0 |
| 20260507095346 | -1 | 146 | 0.0 | 0.0 | 0.00 | 0.00 | 0.00 | 89 | 1013.1 |
| 20260507094846 | -1 | 146 | 0.0 | 0.0 | 0.00 | 0.00 | 0.00 | 89 | 1013.1 |
| 20260507094347 | -1 | 146 | 0.0 | 0.0 | 0.00 | 0.00 | 0.00 | 88 | 1013.1 |
| 20260507093846 | -1 | 146 | 0.0 | 0.0 | 0.00 | 0.00 | 0.00 | 88 | 1013.1 |
| 20260507093348 | -1 | 146 | 0.0 | 0.0 | 0.00 | 0.00 | 0.00 | 88 | 1013.2 |
| 20260507092849 | -1 | 146 | 0.0 | 0.0 | 0.00 | 0.00 | 0.00 | 89 | 1013.2 |
| 20260507092344 | -1 | 146 | 0.0 | 0.0 | 0.00 | 0.00 | 0.00 | 89 | 1013.2 |
| 20260507091846 | -1 | 147 | 0.0 | 0.0 | 0.00 | 0.00 | 0.00 | 90 | 1013.2 |
| 20260507091615 | -1 | 146 | 0.0 | 0.0 | 0.00 | 0.00 | 0.00 | 90 | 1013.2 |
| 20260507090842 | -1 | 146 | 0.0 | 0.0 | 0.00 | 0.00 | 0.00 | 90 | 1013.2 |
| 20260507090340 | -1 | 146 | 0.0 | 0.0 | 0.00 | 0.00 | 0.00 | 90 | 1013.2 |
| 20260507085841 | -2 | 147 | 0.0 | 0.0 | 0.00 | 0.00 | 0.00 | 90 | 1013.2 |
| 20260507085338 | -2 | 146 | 0.0 | 0.0 | 0.00 | 0.00 | 0.00 | 90 | 1013.2 |
| 20260507084838 | -2 | 146 | 0.0 | 0.0 | 0.00 | 0.00 | 0.00 | 90 | 1013.2 |
| 20260507084608 | -2 | 147 | 0.0 | 0.0 | 0.00 | 0.00 | 0.00 | 90 | 1013.2 |
| 20260507084110 | -2 | 147 | 0.0 | 0.0 | 0.00 | 0.00 | 0.00 | 89 | 1013.2 |
| 20260507083333 | -2 | 146 | 0.0 | 0.0 | 0.00 | 0.00 | 0.00 | 88 | 1013.2 |
| 20260507083059 | -2 | 146 | 0.0 | 0.0 | 0.00 | 0.00 | 0.00 | 88 | 1013.2 |
| 20260507082321 | -2 | 147 | 0.0 | 0.0 | 0.00 | 0.00 | 0.00 | 88 | 1013.1 |
| 20260507081815 | -2 | 146 | 0.0 | 0.0 | 0.00 | 0.00 | 0.00 | 87 | 1013.2 |
| 20260507081539 | -1 | 147 | 0.0 | 0.0 | 0.00 | 0.00 | 0.00 | 86 | 1013.2 |
| 20260507081033 | -1 | 146 | 0.0 | 0.0 | 0.00 | 0.00 | 0.00 | 86 | 1013.2 |
| 20260507080256 | -1 | 146 | 0.0 | 0.0 | 0.00 | 0.00 | 0.00 | 84 | 1013.2 |
| 20260507075750 | -1 | 146 | 0.0 | 0.0 | 0.00 | 0.00 | 0.00 | 83 | 1013.1 |
| 20260507075244 | 0 | 146 | 0.0 | 0.0 | 0.00 | 0.00 | 0.00 | 83 | 1013.1 |
| 20260507075010 | 0 | 146 | 0.0 | 0.0 | 0.00 | 0.00 | 0.00 | 83 | 1013.1 |
| 20260507074232 | 0 | 146 | 0.0 | 0.0 | 0.00 | 0.00 | 0.00 | 84 | 1013.1 |
| 20260507073726 | 0 | 146 | 0.0 | 0.0 | 0.00 | 0.00 | 0.00 | 84 | 1013.1 |
| 20260507073223 | 0 | 146 | 0.0 | 0.0 | 0.00 | 0.00 | 0.00 | 84 | 1013.1 |
| 20260507072714 | 0 | 146 | 0.0 | 0.0 | 0.00 | 0.00 | 0.00 | 84 | 1013.2 |
| 20260507072208 | 0 | 146 | 0.0 | 0.0 | 0.00 | 0.00 | 0.00 | 84 | 1013.4 |
| 20260507071703 | 0 | 146 | 0.0 | 0.0 | 0.00 | 0.00 | 0.00 | 84 | 1013.5 |
| 20260507071157 | 0 | 146 | 0.0 | 0.0 | 0.00 | 0.00 | 0.00 | 83 | 1013.6 |
| 20260507070918 | 0 | 146 | 0.0 | 0.0 | 0.00 | 0.00 | 0.00 | 83 | 1013.7 |
| 20260507070752 | 0 | 146 | 0.0 | 0.0 | 0.00 | 0.00 | 0.00 | 83 | 1013.6 |
| 20260507065639 | 0 | 146 | 0.0 | 0.0 | 0.00 | 0.00 | 0.00 | 82 | 1013.7 |
| 20260507065134 | 0 | 146 | 0.0 | 0.0 | 0.00 | 0.00 | 0.00 | 80 | 1013.9 |
| 20260507064627 | 0 | 146 | 0.0 | 0.0 | 0.00 | 0.00 | 0.00 | 79 | 1013.8 |
| 20260507064121 | 0 | 146 | 0.0 | 0.0 | 0.00 | 0.00 | 0.00 | 79 | 1013.7 |
| 20260507063615 | 0 | 146 | 0.0 | 0.0 | 0.00 | 0.00 | 0.00 | 79 | 1013.8 |
| 20260507063108 | 0 | 146 | 0.0 | 0.0 | 0.00 | 0.00 | 0.00 | 80 | 1013.9 |
| 20260507062603 | 0 | 146 | 0.0 | 0.0 | 0.00 | 0.00 | 0.00 | 78 | 1013.9 |
| 20260507062057 | 0 | 146 | 0.0 | 0.0 | 0.00 | 0.00 | 0.00 | 77 | 1014.0 |
| 20260507061551 | 0 | 146 | 0.0 | 0.0 | 0.00 | 0.00 | 0.00 | 76 | 1014.0 |
| 20260507061045 | 1 | 146 | 0.0 | 0.0 | 0.00 | 0.00 | 0.00 | 75 | 1014.0 |
| 20260507060537 | 1 | 146 | 0.0 | 0.0 | 0.00 | 0.00 | 0.00 | 75 | 1014.0 |
| 20260507060031 | 1 | 146 | 0.0 | 0.0 | 0.00 | 0.00 | 0.00 | 74 | 1014.1 |
| 20260507055525 | 1 | 146 | 0.0 | 0.0 | 0.00 | 0.00 | 0.00 | 74 | 1014.1 |
| 20260507055019 | 1 | 146 | 0.0 | 0.0 | 0.00 | 0.00 | 0.00 | 74 | 1014.2 |
| 20260507054513 | 1 | 146 | 0.0 | 0.0 | 0.00 | 0.00 | 0.00 | 74 | 1014.2 |
| 20260507054007 | 2 | 146 | 0.0 | 0.0 | 0.00 | 0.00 | 0.00 | 73 | 1014.2 |
| 20260507053501 | 2 | 146 | 0.0 | 0.0 | 0.00 | 0.00 | 0.00 | 73 | 1014.2 |
| 20260507052955 | 2 | 146 | 0.0 | 0.0 | 0.00 | 0.00 | 0.00 | 73 | 1014.2 |
| 20260507052449 | 2 | 146 | 0.0 | 0.0 | 0.00 | 0.00 | 0.00 | 74 | 1014.2 |
| 20260507051943 | 2 | 146 | 0.0 | 0.0 | 0.00 | 0.00 | 0.00 | 71 | 1014.2 |
| 20260507051436 | 2 | 146 | 0.0 | 0.0 | 0.00 | 0.00 | 0.00 | 71 | 1014.2 |
| 20260507051202 | 2 | 147 | 0.0 | 0.0 | 0.00 | 0.00 | 0.00 | 70 | 1014.3 |
| 20260507050425 | 3 | 147 | 0.0 | 0.0 | 0.00 | 0.00 | 0.00 | 70 | 1014.3 |
| 20260507045917 | 2 | 147 | 0.0 | 0.0 | 0.00 | 0.00 | 0.00 | 71 | 1014.3 |
| 20260507045412 | 2 | 147 | 0.0 | 0.0 | 0.00 | 0.00 | 0.00 | 71 | 1014.4 |
| 20260507044905 | 2 | 146 | 0.0 | 0.0 | 0.00 | 0.00 | 0.00 | 70 | 1014.4 |
| 20260507044632 | 2 | 147 | 0.0 | 0.0 | 0.00 | 0.00 | 0.00 | 70 | 1014.4 |
| 20260507043853 | 2 | 146 | 0.0 | 0.0 | 0.00 | 0.00 | 0.00 | 70 | 1014.4 |
| 20260507043348 | 2 | 147 | 0.0 | 0.0 | 0.00 | 0.00 | 0.00 | 71 | 1014.5 |
| 20260507042842 | 2 | 147 | 0.0 | 0.0 | 0.00 | 0.00 | 0.00 | 73 | 1014.4 |
| 20260507042335 | 2 | 147 | 0.0 | 0.0 | 0.00 | 0.00 | 0.00 | 71 | 1014.4 |
| 20260507041830 | 2 | 146 | 0.0 | 0.0 | 0.00 | 0.00 | 0.00 | 70 | 1014.5 |
| 20260507041324 | 2 | 146 | 0.0 | 0.0 | 0.00 | 0.00 | 0.00 | 70 | 1014.5 |
| 20260507040818 | 2 | 146 | 0.0 | 0.0 | 0.00 | 0.00 | 0.00 | 69 | 1014.6 |
| 20260507040311 | 3 | 147 | 0.0 | 0.0 | 0.00 | 0.00 | 0.00 | 68 | 1014.6 |
| 20260507035805 | 3 | 147 | 0.0 | 0.0 | 0.00 | 0.00 | 0.00 | 69 | 1014.6 |
| 20260507035300 | 3 | 146 | 0.0 | 0.0 | 0.00 | 0.00 | 0.00 | 68 | 1014.7 |
| 20260507034754 | 3 | 146 | 0.0 | 0.0 | 0.00 | 0.00 | 0.00 | 69 | 1014.7 |
| 20260507034251 | 3 | 146 | 0.0 | 0.0 | 0.00 | 0.00 | 0.00 | 68 | 1014.6 |
| 20260507034022 | 3 | 145 | 0.0 | 0.0 | 0.00 | 0.00 | 0.00 | 67 | 1014.7 |
| 20260507033250 | 3 | 145 | 0.0 | 0.0 | 0.00 | 0.00 | 0.00 | 66 | 1014.7 |
| 20260507032751 | 3 | 145 | 0.0 | 0.0 | 0.00 | 0.00 | 0.00 | 66 | 1014.7 |
| 20260507032248 | 3 | 145 | 0.0 | 0.0 | 0.00 | 0.00 | 0.00 | 66 | 1014.7 |
| 20260507032017 | 3 | 145 | 0.0 | 0.0 | 0.00 | 0.00 | 0.00 | 66 | 1014.7 |
| 20260507031518 | 3 | 143 | 0.0 | 0.0 | 0.00 | 0.00 | 0.00 | 66 | 1014.7 |
| 20260507030748 | 3 | 144 | 0.0 | 0.0 | 0.00 | 0.00 | 0.00 | 65 | 1014.7 |
| 20260507030246 | 4 | 143 | 0.0 | 0.0 | 0.00 | 0.00 | 0.00 | 64 | 1014.7 |
| 20260507025746 | 4 | 144 | 0.0 | 0.0 | 0.00 | 0.00 | 0.00 | 64 | 1014.8 |
| 20260507025247 | 4 | 143 | 0.0 | 0.0 | 0.00 | 0.00 | 0.00 | 64 | 1014.7 |
| 20260507024746 | 4 | 143 | 0.0 | 0.0 | 0.00 | 0.00 | 0.00 | 64 | 1014.8 |
| 20260507024247 | 4 | 144 | 0.0 | 0.0 | 0.00 | 0.00 | 0.00 | 64 | 1014.8 |
| 20260507023747 | 4 | 143 | 0.0 | 0.0 | 0.00 | 0.00 | 0.00 | 64 | 1014.9 |
| 20260507023518 | 4 | 143 | 0.0 | 0.0 | 0.00 | 0.00 | 0.00 | 64 | 1014.8 |
| 20260507022747 | 4 | 143 | 0.0 | 0.0 | 0.00 | 0.00 | 0.00 | 63 | 1014.8 |
| 20260507022248 | 4 | 143 | 0.0 | 0.0 | 0.00 | 0.00 | 0.00 | 62 | 1014.8 |
| 20260507021742 | 4 | 143 | 0.0 | 0.0 | 0.00 | 0.00 | 0.00 | 61 | 1014.8 |
| 20260507021512 | 5 | 143 | 0.0 | 0.0 | 0.00 | 0.00 | 0.00 | 60 | 1014.9 |
| 20260507020740 | 5 | 144 | 0.0 | 0.0 | 0.00 | 0.00 | 0.00 | 60 | 1014.8 |
| 20260507020236 | 5 | 144 | 0.0 | 0.0 | 0.00 | 0.00 | 0.00 | 60 | 1014.8 |
| 20260507015738 | 5 | 143 | 0.0 | 1.6 | 0.00 | 0.00 | 0.00 | 59 | 1014.8 |
| 20260507015237 | 5 | 144 | 0.0 | 1.6 | 0.00 | 0.00 | 0.00 | 59 | 1014.8 |